[[{"header":{"parameterUnit":"m.s-1","parameterCategory":1,"la1":30.2991,"la2":30.254,"lo1":-89.0895,"lo2":-89.0444,"dy":0.0017,"dx":0.0017,"nx":28,"ny":28,"refTime":"2024-03-17T21:00:00:Z","depth":0,"parameterNumber":2,"parameterNumberName":"U-component_of_WINDS"},"data":[0,0,0,0,0,0,0,0,0,0,0,0,0,0,0,0,0,0,0,0,0,0,0,0,0,0,0,0,0,0,0,0,0,0,0,0,0,0,0,0,0,0,0,0,0,0,0,0,0,0,0,0,0,0,0,0,0,0,-3.904,-3.9041,0,-3.9065,-3.9066,-3.9066,-3.8977,-3.8975,-3.8972,-3.897,-3.8996,-3.8999,-3.9002,0,0,0,0,0,0,0,0,0,0,0,0,0,-3.8917,-3.892,-3.904,-3.9041,-3.9041,-3.9065,-3.9066,-3.9066,-3.8978,-3.8975,-3.8971,-3.8968,-3.8995,-3.8999,-3.9003,0,0,0,0,0,0,0,0,0,0,0,0,0,-3.896,-3.8921,-3.904,-3.9,-3.8997,-3.9065,-3.9066,-3.9066,-3.8978,-3.8974,-3.897,-3.8967,-3.8994,-3.8998,-3.9003,-3.9112,0,0,-3.9018,-3.902,0,0,0,0,0,0,0,0,-3.8957,-3.8964,-3.9006,-3.9003,-3.8999,-3.9014,-3.9032,-3.9081,-3.8979,-3.8985,-3.8969,-3.8965,-3.9005,-3.9009,-3.9022,-3.9113,-3.9114,-3.9018,-3.9021,-3.9023,-3.9024,0,0,0,0,0,0,0,-3.8954,-3.8963,-3.905,-3.9006,-3.9002,-3.8981,-3.8982,-3.9041,-3.9017,-3.8985,-3.8978,-3.8982,-3.9003,-3.9018,-3.9022,-3.9115,-3.9018,-3.9022,-3.9025,-3.9027,-3.9297,-3.9301,0,0,0,0,0,0,-3.8957,-3.8961,-3.9049,-3.9051,-3.8968,-3.8986,-3.8988,-3.9013,-3.9016,-3.9013,-3.8986,-3.8978,-3.9012,-3.9017,-3.9023,-3.9151,-3.9023,-3.9027,-3.903,-3.9292,-3.9298,-3.9302,0,0,0,0,0,0,-3.8954,-3.8965,-3.9048,-3.9004,-3.9013,-3.8993,-3.9022,-3.9016,-3.9031,-3.9017,-3.9013,-3.9005,-3.9009,-3.9016,-3.909,-3.9151,-3.903,-3.9034,-3.9287,-3.9294,-3.93,-3.9409,0,0,0,0,0,0,-3.8951,-3.8965,-3.9006,-3.9006,-3.9016,-3.9116,-3.9025,-3.9019,-3.9039,-3.903,-3.9035,-3.9032,-3.9006,-3.9084,-3.9095,-3.9155,-3.9038,-3.9282,-3.929,-3.9298,-3.94,-3.9418,-3.9434,0,0,0,0,0,-3.8947,-3.9036,-3.9009,-3.902,-3.9067,-3.912,-3.9125,-3.9094,-3.9044,-3.9086,-3.9077,-3.9031,-3.9142,-3.9092,-3.9104,-3.9167,-3.9278,-3.9288,-3.9297,-3.9392,-3.9414,-3.9433,0,0,0,0,0,0,-3.9044,-3.9035,-3.9005,-3.9096,-3.9109,-3.9104,-3.9156,-3.9119,-3.9146,-3.9136,-3.9096,-3.9098,-3.918,-3.918,-3.9125,-3.9272,-3.9202,-3.9214,-3.9269,-3.9291,-3.9307,-3.9306,-3.9042,0,0,0,0,0,-3.9076,-3.912,-3.9109,-3.9191,-3.9199,-3.9177,-3.9198,-3.9173,-3.9185,-3.919,-3.9187,-3.9201,-3.9238,-3.9264,-3.9298,-3.9399,-3.9399,-3.9447,-3.9465,-3.9479,-3.949,-3.9544,-3.9566,-3.9334,-3.9334,-3.9334,0,0,-3.9143,-3.9143,-3.9173,-3.9211,-3.9218,-3.9264,-3.9182,-3.9234,-3.9268,-3.9198,-3.9268,-3.9267,-3.9279,-3.9367,-3.9406,-3.937,-3.9554,-3.9491,-3.9502,-3.9506,-3.9556,-3.9578,-3.9598,-3.9341,-3.934,-3.9339,0,0,-3.9289,-3.9293,-3.9362,-3.937,-3.9382,-3.9367,-3.9383,-3.9384,-3.938,-3.945,-3.9398,-3.9438,-3.9504,-3.9515,-3.953,-3.968,-3.9639,-3.9692,-3.9781,-3.9834,-3.9852,-3.9868,-3.9923,-3.9943,-3.9703,-3.9703,-3.9704,0,-3.937,-3.9438,-3.9402,-3.9458,-3.9476,-3.9414,-3.9484,-3.9494,-3.9517,-3.9531,-3.949,-3.9572,-3.9576,-3.9666,-3.9702,-3.9716,-3.9734,-3.9691,-3.9853,-3.9868,-3.9883,-3.9934,-3.9954,-3.971,-3.9709,-3.9708,-3.9708,0,-3.9538,-3.9586,-3.964,-3.9663,-3.9687,-3.9749,-3.9723,-3.9752,-3.9724,-3.9713,-3.9785,-3.9788,-3.9821,-3.9841,-3.9814,-3.9927,-3.9905,-3.9859,-3.9788,-3.9912,-3.9959,-3.9979,-3.9719,-3.9717,-3.9715,-3.9713,0,0,-3.9746,-3.9748,-3.9769,-3.9779,-3.9787,-3.9824,-3.9883,-3.9916,-3.9942,-3.9959,-4.0009,-4.0066,-4.0024,-4.004,-4.0014,-4.0061,-4.018,-4.0009,-4.0009,-4.0042,-4.0306,-4.0341,-4.0364,-4.0153,-4.0156,-4.0159,-4.0305,0,-3.989,-3.9992,-3.9961,-4.0064,-4.0108,-4.005,-4.0102,-4.0113,-4.0104,-4.014,-4.013,-4.0172,-4.0112,-4.0122,-4.0165,-4.0157,-4.0233,-4.0145,-4.0199,-4.0202,-4.0199,-4.0389,-4.0426,-4.0564,-4.0323,-4.0326,-4.0328,0,-4.0071,-4.0096,-4.0204,-4.0205,-4.0222,-4.027,-4.0297,-4.0332,-4.0343,-4.0333,-4.0352,-4.0317,-4.0376,-4.0303,-4.0384,-4.0325,-4.0345,-4.0345,-4.0349,-4.0354,-4.0273,-4.04,-4.0606,-4.0628,-4.0357,-4.0355,-4.0353,0,-4.0214,-4.0274,-4.0346,-4.0356,-4.0359,-4.0394,-4.0397,-4.0404,-4.0426,-4.045,-4.0463,-4.0494,-4.0512,-4.0536,-4.051,-4.046,-4.0596,-4.0521,-4.059,-4.0591,-4.0622,-4.0621,-4.0836,-4.0634,-4.0633,-4.0633,-4.0633,0,-4.0378,-4.0446,-4.041,-4.0455,-4.0529,-4.0493,-4.0568,-4.0565,-4.0572,-4.0615,-4.0566,-4.0607,-4.057,-4.0608,-4.0588,-4.0659,-4.0667,-4.0661,-4.0655,-4.0666,-4.0667,-4.0679,-4.067,-4.0638,-4.0637,-4.0636,-4.0635,0,-4.055,-4.0528,-4.0603,-4.06,-4.0601,-4.0656,-4.0653,-4.0695,-4.0682,-4.0737,-4.0748,-4.0728,-4.077,-4.0747,-4.079,-4.0777,-4.0869,-4.0849,-4.0865,-4.0861,-4.0931,-4.0926,-4.1163,-4.1193,-4.0971,-4.0973,-4.0975,0,-4.0657,-4.0708,-4.071,-4.0736,-4.0742,-4.0783,-4.0805,-4.0771,-4.0796,-4.0813,-4.0852,-4.089,-4.0919,-4.099,-4.0979,-4.1013,-4.0994,-4.1075,-4.0999,-4.1008,-4.0996,-4.0994,-4.0999,-4.1091,-4.1094,-4.1096,-4.1097,0,-4.0849,-4.0836,-4.0869,-4.0899,-4.0927,-4.0948,-4.0966,-4.099,-4.0956,-4.0986,-4.1029,-4.1052,-4.1096,-4.1135,-4.1163,-4.1166,-4.1127,-4.1121,-4.1139,-4.1152,-4.1159,-4.1157,-4.0908,-4.1116,-4.1114,-4.1113,-4.1112,-4.1111,-4.0993,-4.1036,-4.1044,-4.1083,-4.1092,-4.111,-4.1149,-4.1141,-4.1176,-4.1209,-4.1187,-4.1238,-4.1248,-4.1282,-4.129,-4.1329,-4.1297,-4.1322,-4.1329,-4.1336,-4.1346,-4.1152,-4.1334,-4.1333,-4.1333,-4.1332,-4.1332,0,-4.1183,-4.1185,-4.1221,-4.1248,-4.1279,-4.1238,-4.1256,-4.1284,-4.1329,-4.1342,-4.1371,-4.142,-4.1458,-4.145,-4.1484,-4.1517,-4.15,-4.1527,-4.1525,-4.1526,-4.1373,-4.1355,-4.154,-4.154,-4.154,-4.154,-4.154,-4.154,-4.1286,-4.1357,-4.1345,-4.142,-4.1421,-4.1471,-4.1484,-4.15,-4.151,-4.1567,-4.1598,-4.1593,-4.1597,-4.1631,-4.1664,-4.166,-4.1676,-4.171,-4.17,-4.1558,-4.1537,-4.1517,-4.15,-4.1713,-4.1713,-4.185,-4.1852,-4.1853]},{"header":{"parameterUnit":"m.s-1","parameterCategory":1,"la1":30.2991,"la2":30.254,"lo1":-89.0895,"lo2":-89.0444,"dy":0.0017,"dx":0.0017,"nx":28,"ny":28,"refTime":"2024-03-17T21:00:00:Z","depth":0,"parameterNumber":3,"parameterNumberName":"V-component_of_WINDS"},"data":[0,0,0,0,0,0,0,0,0,0,0,0,0,0,0,0,0,0,0,0,0,0,0,0,0,0,0,0,0,0,0,0,0,0,0,0,0,0,0,0,0,0,0,0,0,0,0,0,0,0,0,0,0,0,0,0,0,0,-3.7658,-3.7659,0,-3.769,-3.769,-3.7691,-3.7643,-3.7642,-3.764,-3.7638,-3.7669,-3.7671,-3.7673,0,0,0,0,0,0,0,0,0,0,0,0,0,-3.7554,-3.7557,-3.7658,-3.7659,-3.7659,-3.769,-3.769,-3.7691,-3.7644,-3.7642,-3.764,-3.7638,-3.7668,-3.7671,-3.7674,0,0,0,0,0,0,0,0,0,0,0,0,0,-3.7594,-3.7557,-3.7658,-3.7639,-3.7638,-3.769,-3.769,-3.7691,-3.7644,-3.7642,-3.7639,-3.7637,-3.7667,-3.7671,-3.7674,-3.7745,0,0,-3.7685,-3.7686,0,0,0,0,0,0,0,0,-3.7592,-3.7598,-3.7642,-3.7641,-3.7639,-3.766,-3.7665,-3.7709,-3.7645,-3.7642,-3.7638,-3.7636,-3.7668,-3.7671,-3.7682,-3.7747,-3.7748,-3.7685,-3.7687,-3.7689,-3.769,0,0,0,0,0,0,0,-3.7589,-3.7596,-3.7671,-3.7642,-3.7641,-3.7628,-3.7631,-3.7673,-3.7668,-3.7642,-3.7638,-3.7643,-3.7667,-3.7679,-3.7683,-3.7749,-3.7685,-3.7688,-3.769,-3.7692,-3.7872,-3.7875,0,0,0,0,0,0,-3.7589,-3.7594,-3.767,-3.7672,-3.7609,-3.7632,-3.7636,-3.7656,-3.7668,-3.7667,-3.7645,-3.7641,-3.7674,-3.7679,-3.7684,-3.7768,-3.7689,-3.7692,-3.7694,-3.7869,-3.7873,-3.7876,0,0,0,0,0,0,-3.7587,-3.7596,-3.7669,-3.7632,-3.764,-3.7637,-3.766,-3.7658,-3.767,-3.767,-3.7669,-3.7659,-3.7673,-3.7679,-3.773,-3.7768,-3.7694,-3.7697,-3.7866,-3.787,-3.7874,-3.7937,0,0,0,0,0,0,-3.7584,-3.7596,-3.7624,-3.7633,-3.7643,-3.7716,-3.7662,-3.766,-3.7677,-3.7671,-3.7683,-3.7682,-3.7671,-3.7725,-3.7734,-3.7772,-3.77,-3.7863,-3.7868,-3.7873,-3.7931,-3.7942,-3.7952,0,0,0,0,0,-3.7581,-3.764,-3.7625,-3.7635,-3.7677,-3.7718,-3.7723,-3.771,-3.768,-3.7708,-3.7707,-3.7682,-3.7763,-3.7731,-3.774,-3.778,-3.786,-3.7867,-3.7872,-3.7927,-3.794,-3.7952,0,0,0,0,0,0,-3.7634,-3.7641,-3.7625,-3.7689,-3.7703,-3.771,-3.7744,-3.7725,-3.7747,-3.7741,-3.7723,-3.7726,-3.7781,-3.7785,-3.775,-3.7849,-3.7806,-3.7815,-3.7844,-3.7857,-3.7867,-3.7866,-3.7703,0,0,0,0,0,-3.7654,-3.7687,-3.769,-3.7746,-3.7754,-3.7748,-3.7765,-3.7754,-3.7768,-3.7774,-3.7777,-3.7791,-3.7819,-3.7838,-3.7864,-3.7931,-3.7933,-3.7963,-3.7973,-3.7982,-3.7989,-3.8024,-3.8038,-3.7895,-3.7895,-3.7895,0,0,-3.7694,-3.7701,-3.7723,-3.7757,-3.7767,-3.7801,-3.7754,-3.7792,-3.7817,-3.7779,-3.7828,-3.7831,-3.7845,-3.7905,-3.7931,-3.791,-3.8028,-3.7989,-3.7996,-3.7999,-3.8032,-3.8045,-3.8057,-3.7899,-3.7899,-3.7898,0,0,-3.7784,-3.7794,-3.7841,-3.7852,-3.7868,-3.7863,-3.7875,-3.7884,-3.7885,-3.7934,-3.7906,-3.7935,-3.7984,-3.7996,-3.8008,-3.8102,-3.8079,-3.8111,-3.8165,-3.8199,-3.8211,-3.822,-3.8254,-3.8266,-3.8118,-3.8118,-3.8118,0,-3.7832,-3.7883,-3.7868,-3.7908,-3.7924,-3.7891,-3.7939,-3.795,-3.7973,-3.7984,-3.796,-3.8021,-3.8028,-3.809,-3.8113,-3.8124,-3.8136,-3.811,-3.821,-3.822,-3.8229,-3.8261,-3.8273,-3.8122,-3.8121,-3.8121,-3.8121,0,-3.7941,-3.7977,-3.8013,-3.8037,-3.8056,-3.81,-3.8091,-3.8112,-3.8098,-3.8096,-3.8146,-3.8153,-3.818,-3.8194,-3.8181,-3.8253,-3.824,-3.8213,-3.817,-3.8247,-3.8276,-3.8288,-3.8127,-3.8126,-3.8125,-3.8124,0,0,-3.8067,-3.8082,-3.8095,-3.8106,-3.812,-3.8147,-3.8189,-3.8216,-3.8234,-3.8251,-3.8285,-3.8327,-3.8303,-3.8316,-3.8304,-3.8334,-3.8408,-3.8304,-3.8304,-3.8323,-3.8489,-3.8509,-3.8524,-3.8393,-3.8395,-3.8397,-3.8488,0,-3.8158,-3.8231,-3.8218,-3.8289,-3.8321,-3.8291,-3.8327,-3.8339,-3.8338,-3.8364,-3.8362,-3.8392,-3.8358,-3.8366,-3.8394,-3.8393,-3.8441,-3.8387,-3.8424,-3.8426,-3.8423,-3.8539,-3.8561,-3.8646,-3.8499,-3.8501,-3.8502,0,-3.8273,-3.8295,-3.837,-3.8379,-3.8392,-3.8425,-3.8448,-3.8474,-3.8487,-3.8483,-3.8499,-3.8481,-3.8521,-3.8477,-3.8532,-3.8495,-3.851,-3.8512,-3.8515,-3.8518,-3.8469,-3.8546,-3.8673,-3.8686,-3.852,-3.8519,-3.8518,0,-3.8358,-3.8406,-3.8456,-3.8466,-3.8478,-3.8502,-3.8507,-3.8518,-3.8535,-3.8555,-3.8565,-3.8589,-3.8603,-3.8621,-3.861,-3.8579,-3.8667,-3.8622,-3.8665,-3.8666,-3.8686,-3.8685,-3.8817,-3.8695,-3.8694,-3.8694,-3.8694,0,-3.8461,-3.8508,-3.8495,-3.8526,-3.8577,-3.8561,-3.8612,-3.8613,-3.8623,-3.8653,-3.8628,-3.8656,-3.8639,-3.8666,-3.8657,-3.8704,-3.871,-3.8709,-3.8706,-3.8711,-3.8712,-3.8721,-3.8715,-3.8697,-3.8697,-3.8696,-3.8696,0,-3.8565,-3.8558,-3.8611,-3.8618,-3.8621,-3.8658,-3.8663,-3.8692,-3.8688,-3.8727,-3.8735,-3.8729,-3.876,-3.875,-3.8782,-3.8776,-3.8836,-3.8825,-3.8832,-3.883,-3.8874,-3.887,-3.9017,-3.9035,-3.8901,-3.8902,-3.8903,0,-3.8631,-3.8667,-3.8677,-3.8696,-3.8704,-3.8735,-3.8752,-3.8737,-3.8756,-3.8773,-3.8799,-3.8827,-3.885,-3.89,-3.8898,-3.8923,-3.8912,-3.8962,-3.8916,-3.892,-3.8914,-3.8912,-3.8915,-3.8972,-3.8973,-3.8975,-3.8976,0,-3.875,-3.8745,-3.8771,-3.8796,-3.8817,-3.8836,-3.8852,-3.8869,-3.8855,-3.8877,-3.8908,-3.8926,-3.8959,-3.8987,-3.901,-3.9014,-3.8993,-3.899,-3.9001,-3.9008,-3.901,-3.901,-3.8858,-3.8987,-3.8986,-3.8985,-3.8984,-3.8984,-3.8837,-3.8867,-3.888,-3.8909,-3.892,-3.8936,-3.8963,-3.8963,-3.8989,-3.9016,-3.9005,-3.9041,-3.9052,-3.9079,-3.9087,-3.9115,-3.9095,-3.9112,-3.9116,-3.912,-3.9126,-3.9006,-3.9118,-3.9118,-3.9118,-3.9117,-3.9117,0,-3.8955,-3.8961,-3.8989,-3.9013,-3.9036,-3.9014,-3.903,-3.9051,-3.9083,-3.9096,-3.9118,-3.9154,-3.9181,-3.9181,-3.9206,-3.9228,-3.9219,-3.9235,-3.9234,-3.9235,-3.9142,-3.913,-3.9242,-3.9242,-3.9242,-3.9242,-3.9242,-3.9242,-3.9019,-3.9069,-3.9065,-3.9119,-3.9124,-3.916,-3.9171,-3.9185,-3.9195,-3.9237,-3.9259,-3.9259,-3.9267,-3.9292,-3.9316,-3.9315,-3.9325,-3.9346,-3.9341,-3.9254,-3.9242,-3.923,-3.9219,-3.9348,-3.9348,-3.9433,-3.9433,-3.9434]}]]